sat.trackr.live / text

‹ back to catalog

UNKNOWN

NORAD 81845

UNKNOWN UNKNOWN UNKNOWN

§ Identity

Operator
Country
Launch date
Launch site
Launch vehicle
Mass (kg)
RCS (m²)

External: N2YO · Heavens-Above

§ Orbital elements

Epoch: 2026-09-18T06:59:30.951744Z

Period
96.87 min
Inclination
97.6799°
Eccentricity
0.0086971
Mean motion
14.86523142 rev/d
Perigee alt
548.0 km
Apogee alt
669.6 km
Semi-major
6,986.9 km
B*
1.8612e-4
RAAN
83.6024°
Arg perigee
103.7929°
Mean anomaly
70.2530°
Rev number
69,103

§ Raw data

UNKNOWN1 81845U          26261.29133046  .00001708  00000+0  18612-3 0  99972 81845  97.6799  83.6024 0086971 103.7929  70.2530 14.86523142691032

JSON: /api/v1/satellites/81845 · /tle

For live sub-satellite position, see the globe view (requires WebGL).

§ Visibility from observer

Set your observer location to see the next 7 days of passes ≥ 10°. The values pass through the URL so the page stays shareable.

No JS? Fill the form by hand. The geolocation button needs JavaScript.